Hourly Data Report for November 07, 2019

SHEARWATER RCS
NOVA SCOTIA
Current Station Operator: ECCC - MSC

44°37'47.000" N
63°30'48.000" W
24.00 m
8205092
71264
AAW

Download Data

Hourly Data (November 2019)
Hourly Data Report for November 7, 2019
TIME
LST
Temp Definition
°C
Dew Point Definition
°C
Rel Hum Definition
%
Precip. Amount Definition
mm

Wind Dir Definition
10's deg

Wind Spd Definition
km/h
Visibility Definition
km
Stn Press Definition
kPa
Hmdx Definition


Wind Chill Definition


Weather Definition


00:00 3.8 -3.0 61 0.0 26 9   102.32     LegendNANA
01:00 3.2 -3.0 64 0.0 26 9   102.36     LegendNANA
02:00 2.8 -3.5 63 0.0 31 10   102.36     LegendNANA
03:00 2.6 -3.7 63 0.0 31 12   102.35     LegendNANA
04:00 1.0 -5.2 63 0.0 33 3   102.33     LegendNANA
05:00 1.0 -4.9 65 0.0 34 6   102.32     LegendNANA
06:00 -0.1 -4.2 74 0.0 21 2   102.30   -1 LegendNANA
07:00 -0.7 -4.0 78 0.0 24 2   102.30   -1 LegendNANA
08:00 2.5 -2.1 72 0.0 0 1   102.32     LegendNANA
09:00 5.5 -3.3 53 0.0 18 15   102.19     LegendNANA
10:00 6.2 -0.5 62 0.0 19 16   102.24     LegendNANA
11:00 8.7 2.0 63 0.0 19 19   102.11     LegendNANA
12:00 9.2 3.5 67 0.0 19 23   101.94     LegendNANA
13:00 10.3 3.5 63 0.0 21 29   101.83     LegendNANA
14:00 10.1 4.0 66 0.0 21 28   101.74     LegendNANA
15:00 10.5 4.9 69 0.0 21 28   101.68     LegendNANA
16:00 10.1 5.1 71 0.0 21 23   101.66     LegendNANA
17:00 9.6 5.8 78 0.0 21 22   101.56     LegendNANA
18:00 9.4 5.8 78 0.0 21 16   101.50     LegendNANA
19:00 9.6 6.7 82 0.2 22 17   101.48     LegendNANA
20:00 9.5 7.3 86 0.5 20 17   101.38     LegendNANA
21:00 9.9 7.4 85 0.0 21 15   101.31     LegendNANA
22:00 10.1 8.0 87 0.3 20 15   101.21     LegendNANA
23:00 10.4 7.8 84 0.0 20 16   101.06     LegendNANA

Notes on Data Quality.

Legend

  • E = Estimated
  • M = Missing
  • NA = Not Available*
  • [empty] = Indicates an unobserved value
Date modified: